Theta_e
327 328 325 325 327 328 329 331 333 336 336 334 334 333 332 330 331 336 333 328 326 326 325 324 324 324 323 324 324 323 322 323 323 324 325 325 324 324 324 324 325 326 326 327 327 328 329 330 331 331 331 330 330 331 331 331 332 331 329 330 329 327 328 332 332 329 330 331 328 327 326 324 325 325 325 326 328 327 327 328 328 330 330 329 329
327 327 326 325 326 329 332 334 335 335 336 334 333 334 334 332 333 335 332 326 325 325 324 324 323 323 322 322 323 322 321 321 322 323 323 323 322 321 322 322 323 324 325 325 326 325 326 328 330 331 332 331 330 331 331 330 330 330 329 330 329 329 329 332 332 329 330 330 328 328 327 326 326 324 323 325 327 326 326 327 327 329 331 330 330
328 328 328 326 326 329 334 336 336 336 337 335 334 335 336 334 334 334 331 324 324 326 323 323 324 324 322 321 320 321 322 322 321 322 321 321 321 322 323 323 324 324 323 323 324 324 325 326 327 328 330 330 331 331 330 330 330 330 330 329 328 329 330 332 331 329 329 330 327 329 330 330 330 327 325 326 325 325 325 326 326 327 328 328 329
331 331 329 326 326 331 335 337 337 338 338 335 334 336 336 335 335 334 330 323 324 325 323 323 325 323 322 322 321 319 318 319 320 320 321 321 321 322 322 323 323 323 323 322 322 322 323 324 325 326 326 327 328 329 328 328 330 330 330 330 330 330 330 330 331 330 330 330 328 330 331 330 331 330 329 328 324 325 325 325 325 325 327 328 328
329 330 329 329 331 334 334 335 336 337 337 335 334 336 336 335 335 333 329 324 325 324 324 324 323 323 322 321 320 318 317 318 320 321 321 321 320 321 322 322 322 322 322 322 321 321 322 323 323 323 325 325 325 325 324 325 326 327 329 330 330 330 330 329 330 330 330 330 328 329 330 330 332 331 331 329 325 323 324 325 326 324 324 325 325
326 328 327 330 332 334 334 335 335 336 337 336 335 335 336 335 334 333 328 325 324 324 325 324 321 321 320 318 317 317 319 321 321 321 320 320 320 321 322 322 323 322 322 321 320 320 321 322 322 322 322 323 323 322 322 322 323 324 326 328 329 329 329 329 328 328 330 330 328 328 329 330 331 330 330 331 328 325 323 325 327 325 321 322 324
324 325 326 327 330 332 335 335 335 335 336 336 336 336 335 334 334 332 326 324 324 324 325 322 320 320 318 318 317 317 319 321 321 320 319 319 320 322 322 322 323 322 321 321 321 321 321 321 321 320 320 320 321 321 321 321 321 322 323 324 326 326 327 328 328 327 329 330 329 328 328 328 328 327 328 330 330 329 326 324 325 325 324 326 326
322 324 324 326 329 332 334 334 335 335 335 337 337 336 334 333 334 332 326 324 324 324 324 321 320 320 318 318 317 318 320 320 320 319 318 319 320 321 322 322 322 322 322 321 320 319 318 318 318 317 316 316 317 319 320 321 321 322 322 322 322 323 324 326 326 326 327 328 328 327 327 327 326 325 325 327 328 329 329 327 326 325 325 324 323
321 321 323 324 327 330 333 334 334 335 335 336 337 336 333 333 334 331 326 324 324 323 323 321 321 320 319 318 317 318 319 318 318 318 318 319 320 320 320 320 320 321 320 318 316 315 315 314 314 314 313 313 313 315 317 319 321 321 322 322 322 322 323 323 323 323 324 325 325 325 325 326 326 325 325 326 327 327 327 327 327 327 326 324 321
320 320 322 324 325 327 330 333 333 334 335 335 337 336 333 334 334 329 326 325 324 324 323 322 322 321 320 319 317 319 319 317 318 319 318 319 319 319 319 319 319 319 318 316 315 315 314 314 313 313 313 312 312 313 314 315 317 319 320 321 321 321 321 322 321 321 321 321 321 321 322 323 325 325 324 324 324 325 324 325 325 326 327 324 320
319 319 321 323 324 324 327 332 333 333 334 335 336 335 333 335 332 328 326 324 325 324 323 323 322 321 321 319 318 318 319 318 318 319 319 319 319 319 319 318 318 319 317 316 316 316 315 314 314 313 313 313 313 313 313 313 314 316 316 317 317 318 317 318 318 317 318 318 317 317 318 319 320 321 321 320 320 321 321 321 320 320 320 318 316
319 320 321 322 323 322 325 330 334 333 333 335 335 334 335 335 331 328 325 324 326 325 323 323 323 321 321 320 318 318 318 318 319 319 319 320 319 319 319 319 318 318 317 316 316 316 315 315 314 314 314 314 313 313 313 313 314 314 315 315 315 315 314 314 314 314 314 314 314 314 314 316 317 317 317 318 318 318 318 317 316 315 315 315 316
319 321 322 322 322 321 323 329 333 333 333 334 334 334 335 333 329 327 325 324 326 324 323 324 323 322 322 320 319 318 318 318 319 320 319 319 319 318 318 319 318 318 317 317 317 316 316 316 315 314 314 314 314 314 314 313 313 313 313 314 314 313 313 313 313 313 312 311 312 312 312 313 315 314 314 315 316 316 316 316 316 316 316 315 315
319 322 323 323 323 322 323 329 332 333 333 333 333 333 334 331 328 327 326 325 326 324 323 323 324 324 323 321 320 318 319 318 318 320 319 318 319 318 318 318 319 319 318 318 317 317 317 317 315 314 313 314 314 314 314 313 313 313 313 314 313 313 314 313 313 312 312 311 310 310 311 311 312 312 313 313 314 314 315 316 316 315 314 315 314
320 323 325 325 325 325 327 330 331 333 333 332 332 332 332 330 328 328 327 325 326 325 323 323 324 324 323 322 321 319 319 319 318 319 319 318 319 318 317 317 319 319 319 319 317 317 318 317 316 314 313 313 313 313 313 313 313 312 312 313 313 312 313 312 312 311 311 311 310 309 310 310 310 310 311 311 312 313 313 314 314 314 314 314 315
321 322 324 326 327 328 329 329 329 331 332 331 332 331 330 330 329 328 326 325 326 325 324 323 323 325 324 322 321 320 319 319 318 318 320 319 319 319 318 317 318 319 319 319 317 318 319 318 316 316 314 313 313 313 313 313 313 312 312 313 312 313 313 313 313 312 312 312 310 309 310 311 310 309 309 310 311 312 312 312 313 314 314 314 314
320 321 323 325 327 327 328 328 329 329 330 330 330 330 330 330 329 327 326 325 325 325 325 323 323 324 324 322 322 322 320 319 318 318 319 319 319 319 318 317 318 318 320 321 318 318 319 318 318 317 316 315 314 314 313 312 313 312 313 313 313 313 313 312 312 312 311 311 310 309 309 310 309 309 310 310 310 311 312 312 313 313 313 313 314
321 321 321 323 326 327 326 327 327 328 328 329 329 330 329 329 327 326 326 326 326 325 324 324 324 323 324 323 323 322 322 321 319 318 319 320 320 320 319 318 317 317 320 321 319 319 319 319 319 318 317 315 314 313 313 313 312 312 312 312 312 313 313 312 311 311 311 309 309 309 309 309 309 309 310 311 310 311 311 311 312 312 313 313 314
320 320 321 322 324 325 325 326 326 327 327 328 328 328 328 328 326 326 327 326 326 326 325 325 323 323 324 325 324 324 323 322 321 319 319 320 320 320 319 319 318 317 319 320 319 320 319 319 319 319 317 316 315 314 313 313 313 313 312 312 312 313 313 312 311 310 310 309 310 309 308 308 308 308 310 311 310 310 310 309 310 310 312 313 313
318 318 319 321 322 323 323 323 324 326 327 327 327 327 326 326 327 327 327 326 326 327 327 326 325 324 323 324 324 324 322 321 321 321 321 320 320 319 319 319 319 318 319 320 320 319 319 319 319 319 318 316 316 315 314 314 314 313 313 312 312 311 311 311 311 310 309 309 309 309 309 308 307 306 308 310 309 309 309 309 309 309 310 311 312
318 317 317 319 320 321 320 321 322 323 324 325 325 326 326 326 325 325 326 326 326 326 326 326 325 323 322 323 324 324 322 322 321 321 322 322 321 320 318 319 320 319 319 320 319 319 320 319 319 319 319 317 316 315 314 314 314 314 313 312 311 311 311 311 310 310 309 308 308 308 308 308 307 307 308 308 308 309 310 309 309 310 310 310 310
317 317 316 317 318 319 319 320 321 321 322 322 322 323 324 324 324 324 325 325 325 325 326 326 325 323 323 324 324 324 323 325 323 321 322 323 322 320 319 318 318 319 319 319 319 319 320 319 319 319 318 317 316 316 315 314 314 314 313 312 311 311 310 310 310 310 310 309 308 308 308 308 307 307 307 307 307 308 308 307 308 309 309 309 309
316 316 316 317 317 317 317 318 319 319 319 319 320 320 320 321 322 322 323 323 324 324 324 324 325 325 325 325 325 324 323 324 323 322 322 322 321 321 321 320 320 319 319 318 318 319 320 320 319 319 318 318 316 316 315 314 314 314 313 312 311 311 310 310 310 310 309 309 309 309 308 307 307 307 307 307 307 307 307 307 307 307 308 309 309
316 315 315 316 315 315 315 315 315 316 316 316 317 317 317 318 318 318 319 320 322 323 324 323 324 324 324 325 326 325 324 324 323 323 323 323 322 321 320 320 321 320 319 318 317 318 320 320 320 319 318 318 317 316 315 314 314 314 313 312 312 311 311 311 310 309 308 308 308 308 307 307 306 307 307 307 307 307 308 307 306 306 307 307 308
316 315 315 315 315 314 314 314 314 313 314 313 314 313 314 314 314 315 315 316 318 320 323 325 325 325 325 325 325 325 325 325 325 324 324 324 324 323 321 321 322 321 320 319 319 319 319 319 320 320 319 318 318 317 315 315 314 314 313 313 312 311 311 311 310 309 308 307 307 307 307 307 306 306 307 307 307 307 307 306 306 306 305 305 306
316 316 315 315 314 314 314 314 313 313 313 313 313 312 313 313 313 312 312 314 315 317 319 322 324 325 325 325 325 325 324 324 324 324 324 324 324 324 323 322 322 322 320 320 320 319 319 319 320 320 320 319 318 317 316 315 314 314 314 313 312 312 311 311 310 309 307 307 307 306 306 305 305 305 306 306 306 306 306 306 306 306 305 306 306
316 316 315 315 315 314 314 314 313 313 312 312 313 313 313 313 312 312 312 313 314 314 315 317 319 321 321 321 322 322 322 323 324 324 325 325 325 325 324 323 323 322 322 321 320 318 319 320 319 320 320 319 318 317 316 315 315 314 314 313 312 312 311 310 309 308 306 306 305 305 305 304 304 304 304 305 305 305 305 305 304 305 305 305 305
315 315 315 315 314 314 315 314 313 313 312 313 312 313 313 312 312 312 312 312 312 312 312 314 315 315 315 316 317 316 317 321 322 322 323 324 324 324 324 323 323 322 322 322 321 319 319 320 319 320 320 320 319 317 316 315 315 314 314 313 312 312 311 309 308 306 305 304 303 303 303 303 303 303 303 302 302 301 301 301 301 302 302 303 303
313 314 315 315 314 314 314 313 312 312 312 312 312 312 312 312 312 312 311 311 311 311 311 312 312 313 312 313 314 313 314 318 320 320 321 321 322 323 324 323 322 322 322 322 322 321 320 320 320 320 320 320 319 317 316 315 315 314 313 313 312 311 310 308 306 304 303 303 302 302 302 301 302 301 298 296 295 294 295 296 297 299 300 301 302
312 313 314 314 313 314 314 313 312 312 311 311 311 311 311 312 312 311 311 310 310 310 310 310 310 310 311 311 312 312 313 316 318 318 319 319 320 322 323 323 323 323 323 322 323 323 321 320 321 320 320 319 318 317 316 315 314 314 313 312 311 309 308 306 305 304 303 302 302 302 301 301 300 298 296 294 293 293 293 294 295 296 297 298 299
312 312 313 313 312 313 314 313 312 311 311 310 310 310 311 311 310 310 309 309 308 309 310 310 309 309 309 309 310 311 311 312 314 316 318 318 319 320 321 322 322 323 323 322 322 323 322 321 321 320 319 319 318 317 315 314 313 312 312 311 309 307 306 305 304 303 303 302 302 302 301 301 300 299 298 298 297 296 296 295 296 296 296 296 296
312 312 311 312 311 312 312 312 311 310 310 310 309 309 310 311 310 309 308 308 309 309 309 310 309 309 309 309 309 309 310 310 312 314 316 317 317 319 320 320 320 321 322 322 322 322 322 321 321 319 318 317 316 316 314 312 311 310 309 307 307 306 304 304 303 303 302 302 302 301 301 301 301 300 300 300 299 298 297 297 297 296 296 296 296
312 311 311 310 311 311 311 311 310 309 309 309 308 308 309 310 309 309 309 309 309 309 309 310 309 309 310 310 309 309 310 310 311 311 313 316 317 317 318 318 319 319 319 320 320 320 321 320 319 318 316 315 315 314 312 311 309 307 306 305 305 305 303 303 303 302 302 301 301 301 301 301 301 300 299 299 299 299 299 299 298 297 297 297 297
311 310 310 310 311 311 311 310 309 309 309 308 308 309 310 310 309 310 309 309 309 309 309 310 309 309 309 310 310 310 310 310 310 310 311 313 315 317 317 317 317 318 318 318 318 319 320 319 319 317 315 313 312 311 310 309 307 306 305 305 304 303 303 302 302 302 301 301 301 300 300 300 300 300 300 300 300 300 300 299 298 298 298 298 298
310 310 310 310 311 310 310 310 309 308 308 308 308 309 309 309 309 309 309 309 309 309 309 308 308 309 309 310 310 310 310 310 310 310 311 311 314 316 316 316 316 317 317 317 317 318 319 318 317 316 313 310 309 309 308 307 306 305 304 302 303 302 302 301 301 301 301 300 300 300 300 300 300 300 300 300 299 299 298 298 297 297 297 297 298
310 310 310 311 310 309 309 309 308 308 308 308 308 308 308 308 309 309 309 309 308 308 308 308 308 308 309 310 310 309 310 310 310 310 310 311 312 315 316 316 316 316 316 316 316 317 318 317 316 313 310 309 308 307 306 306 305 302 299 299 301 302 301 301 301 301 301 300 300 300 300 300 300 300 300 299 298 297 297 297 296 296 297 297 298
310 310 310 309 308 308 308 308 308 308 308 308 308 308 308 308 308 308 308 308 308 308 307 307 307 307 308 309 309 309 309 309 309 310 310 311 312 314 315 316 316 315 316 315 315 316 317 316 315 311 309 307 306 305 306 305 303 299 296 298 300 301 301 301 301 301 301 301 301 300 300 300 300 300 300 298 297 296 296 296 296 296 297 297 298
309 309 308 308 307 307 307 307 307 307 307 307 308 308 308 308 308 308 308 308 307 307 307 307 306 307 307 309 309 309 309 309 309 309 310 311 312 313 315 315 315 315 315 315 315 315 315 315 313 310 307 306 305 305 304 301 298 296 296 298 300 300 301 301 301 301 301 301 301 300 299 299 300 299 299 298 297 296 296 296 296 296 297 297 297
307 307 307 306 306 306 305 305 306 306 307 307 307 307 307 307 307 307 307 307 307 307 307 306 306 306 306 307 308 309 309 309 310 309 310 310 311 313 314 314 314 314 314 314 314 314 314 313 312 309 306 304 304 302 299 297 295 295 296 297 299 300 300 301 301 301 301 301 301 300 299 299 299 298 298 297 296 295 295 296 296 296 296 296 296
305 306 305 305 306 305 305 305 306 306 306 306 306 306 306 306 306 306 307 307 307 307 306 306 305 305 306 307 307 308 309 310 310 310 310 311 311 312 313 313 313 313 312 312 313 313 312 311 309 306 304 302 301 298 296 294 294 294 295 296 297 299 300 300 301 301 300 300 300 299 299 298 297 297 296 296 295 294 294 294 294 295 295 296 295
305 305 304 304 305 305 305 305 305 306 305 305 306 306 306 306 306 306 306 306 307 306 306 305 305 304 305 305 306 307 308 309 310 310 310 310 310 311 312 312 312 312 313 313 312 311 310 308 306 304 302 300 298 296 295 294 294 295 295 295 296 298 300 299 299 299 298 298 298 298 298 297 296 296 295 294 294 293 292 291 292 293 294 293 293
304 304 304 304 304 304 304 304 305 305 305 305 305 306 306 306 306 306 306 306 305 306 305 305 305 304 304 305 306 306 307 308 309 310 310 310 310 310 311 312 312 313 313 313 311 309 307 305 304 303 302 300 297 295 295 295 295 295 295 295 296 298 298 296 296 297 297 297 297 297 297 297 296 295 294 293 292 292 291 290 291 291 291 291 290
304 304 303 303 303 303 303 303 303 303 304 304 305 305 305 306 306 306 305 305 305 305 305 305 304 304 304 305 306 306 307 307 309 310 310 310 310 310 311 312 312 312 311 310 309 308 306 304 302 301 300 299 297 296 296 296 295 295 295 294 294 295 294 293 295 296 296 297 297 298 298 297 296 295 294 293 292 291 290 290 291 291 290 290 290
303 303 303 303 302 303 303 303 302 303 303 304 304 305 305 305 305 305 305 305 305 305 305 304 304 304 304 305 306 307 306 307 308 310 310 311 311 311 312 312 311 310 309 308 306 304 303 301 301 300 299 298 296 295 294 294 293 293 292 292 292 292 292 292 294 295 296 297 297 297 296 295 294 293 292 291 291 291 291 291 291 291 291 290 291
303 302 302 302 302 302 302 302 302 303 303 303 304 304 305 305 305 305 305 305 305 305 305 305 305 305 305 305 306 307 307 307 308 309 310 310 310 311 310 309 309 309 308 306 304 302 301 300 300 300 300 298 297 295 294 293 292 292 293 293 293 293 293 293 294 295 296 296 295 295 294 293 292 291 291 291 292 292 292 291 291 291 291 291 291
302 302 302 302 302 302 302 302 303 303 303 303 303 304 304 304 304 305 304 304 304 304 304 305 305 305 306 305 306 306 307 307 307 308 309 309 310 310 308 307 307 307 306 304 302 301 300 300 300 300 299 298 298 297 296 295 295 296 296 296 296 296 296 295 295 296 296 296 295 293 292 292 292 292 292 292 292 292 292 292 291 292 292 292 292
301 301 301 301 301 302 302 302 303 302 302 302 303 303 303 303 303 303 303 303 303 303 303 303 304 304 305 306 306 306 307 307 307 308 309 309 309 309 307 306 306 306 304 302 301 300 299 299 298 298 298 297 298 298 298 298 297 297 297 297 297 297 296 296 296 296 296 295 293 292 292 293 293 293 293 292 292 292 292 292 292 292 292 292 292
301 301 301 301 301 302 302 302 303 302 302 302 302 302 302 302 302 302 302 302 302 303 303 303 303 304 304 305 305 306 307 307 307 308 308 307 307 307 306 305 305 304 301 300 299 298 298 298 298 298 297 298 298 297 297 297 295 295 295 296 296 296 296 295 295 294 292 292 292 292 293 294 294 294 293 292 292 292 292 292 292 292 292 292 292
300 300 301 301 301 301 302 302 302 302 302 302 302 302 302 302 302 302 302 302 302 303 303 303 303 303 304 304 305 306 307 307 307 306 305 305 305 305 304 304 303 301 300 299 299 298 298 299 299 298 298 299 298 296 294 293 293 292 292 293 293 293 292 292 292 291 290 291 292 293 294 294 294 293 293 292 292 292 292 291 291 291 292 292 292
300 300 301 301 301 302 302 302 303 302 302 302 302 302 302 302 302 302 302 302 302 303 303 303 303 303 304 304 304 305 306 307 306 304 302 302 302 303 303 301 300 299 299 299 298 298 299 299 299 298 298 298 297 294 292 292 292 291 291 291 291 291 290 290 290 290 290 292 293 293 294 293 293 292 292 292 291 291 291 291 291 291 291 291 291
301 301 301 302 302 302 302 302 302 302 301 301 301 302 302 302 302 302 302 302 302 303 303 303 304 304 304 305 305 306 306 305 304 302 300 299 299 299 299 298 297 297 298 298 298 298 298 298 297 296 295 295 294 292 291 291 291 291 291 291 290 290 290 290 290 290 291 292 293 293 293 293 292 292 291 291 291 291 291 291 291 291 291 291 291
Wind_Speed
16 17 19 22 20 20 20 20 19 18 17 17 17 15 15 15 14 13 12 11 10 8 7 5 5 5 4 4 4 4 3 3 3 5 6 5 4 4 4 4 3 3 3 2 1 2 2 2 2 2 1 2 5 6 10 12 8 8 9 8 10 11 10 7 6 6 5 3 2 1 2 4 6 9 11 11 11 10 11 12 11 10 10 11 12
15 17 20 22 21 21 19 19 20 20 19 19 18 15 14 13 13 13 12 11 9 7 6 5 4 4 4 4 4 5 3 4 6 6 7 6 5 5 5 5 4 4 4 3 2 1 1 1 1 3 3 3 3 3 6 8 8 10 10 10 11 11 9 7 6 6 5 5 3 1 2 3 4 8 11 12 12 11 9 11 12 10 10 12 13
14 15 17 20 22 22 19 18 19 19 19 19 18 16 14 13 13 13 12 12 10 7 6 6 5 4 4 5 4 5 5 7 8 7 7 7 7 6 6 6 5 5 4 3 3 2 3 2 2 2 3 3 4 4 5 6 7 8 8 9 10 9 7 6 7 7 5 6 5 2 0 0 2 4 7 9 9 9 7 9 10 9 9 10 11
12 14 13 17 21 22 19 17 18 18 18 19 20 18 17 15 14 14 13 13 11 9 7 6 7 6 7 7 6 7 7 8 9 8 7 7 7 7 7 6 6 5 5 4 4 4 3 3 3 3 3 3 4 4 3 4 5 5 5 6 7 6 6 7 7 7 6 6 4 2 2 1 1 1 2 4 5 6 6 6 7 7 8 10 11
11 14 13 15 18 21 20 19 19 19 19 19 21 20 19 18 17 15 14 14 13 11 9 8 9 8 9 9 8 9 9 8 8 8 7 7 7 7 7 7 6 6 6 6 6 5 5 4 3 4 4 3 3 3 2 2 3 4 4 3 4 5 5 6 6 7 7 8 5 2 2 1 1 0 1 3 4 6 6 6 6 7 9 10 12
9 13 14 11 13 18 20 21 21 20 20 19 21 22 20 19 18 17 16 16 15 13 11 10 10 10 10 10 9 9 8 8 8 8 7 8 8 8 8 8 7 7 7 7 7 6 6 5 5 5 5 4 4 3 4 3 1 2 3 3 3 3 4 6 7 7 7 8 8 5 1 1 1 1 1 1 2 5 6 6 6 8 10 11 12
8 9 11 11 14 17 19 21 22 21 21 20 21 22 21 21 20 19 18 17 17 15 13 12 11 11 11 10 10 9 8 8 9 8 8 9 9 8 8 8 8 8 8 8 8 7 7 6 6 6 5 5 5 5 5 4 4 4 3 2 2 2 1 4 5 4 4 5 6 6 5 4 4 2 3 2 1 3 4 5 6 6 8 8 10
9 9 10 12 15 16 18 21 22 21 21 21 22 23 23 23 22 20 18 18 18 17 15 13 12 12 11 10 10 9 9 10 10 10 9 9 9 9 9 8 8 8 8 8 8 8 8 7 7 6 6 6 6 6 5 5 6 6 5 4 3 4 5 3 3 2 1 2 3 3 4 5 5 6 8 6 3 2 3 4 5 6 7 8 9
7 7 9 11 13 17 18 19 20 21 22 23 23 24 23 23 22 21 19 19 20 19 17 15 13 13 13 11 10 10 11 11 10 10 10 10 9 9 9 9 8 8 8 9 8 8 8 8 8 7 7 7 7 7 7 7 7 7 7 7 6 6 6 6 5 5 4 3 3 2 2 3 4 5 7 5 3 4 3 2 4 6 7 8 10
5 6 6 7 10 15 18 19 19 21 23 24 24 25 25 24 23 22 20 20 21 21 19 17 15 14 13 12 11 11 12 12 11 11 10 10 9 9 9 9 9 9 9 9 8 8 8 8 8 8 8 8 8 8 8 8 8 8 8 7 8 7 7 7 7 7 6 6 5 3 1 1 3 3 3 3 2 3 3 3 3 4 5 9 12
3 4 4 4 6 10 15 18 20 21 22 23 23 25 26 25 25 24 22 20 21 21 20 18 16 14 14 13 12 12 12 12 12 12 10 10 10 9 9 9 9 9 9 8 8 8 8 7 7 7 8 8 8 8 8 8 8 7 8 8 8 8 8 7 8 8 7 7 7 6 5 4 3 2 3 3 3 3 4 4 4 5 7 9 12
4 4 4 4 5 8 13 17 20 21 23 23 23 25 26 26 26 25 23 21 22 22 21 19 17 15 14 14 14 13 13 12 13 12 11 11 10 9 9 9 9 9 9 8 8 7 7 7 7 7 7 7 7 8 7 8 8 8 8 8 8 8 8 8 8 9 8 8 8 8 7 6 6 6 5 5 5 5 5 4 5 6 7 8 10
5 5 4 4 4 6 11 16 19 21 23 24 24 25 25 25 27 26 24 23 23 23 22 20 18 16 15 15 15 14 13 13 13 13 12 11 11 10 9 9 9 9 9 9 8 8 7 7 6 6 6 7 7 7 7 7 7 8 8 8 9 9 9 9 9 9 9 8 8 8 7 6 6 6 6 5 5 5 6 5 6 6 6 8 10
6 6 6 5 4 5 9 14 16 18 20 22 23 23 22 23 27 27 25 24 23 23 23 21 19 17 15 15 15 14 14 14 13 13 13 12 12 11 10 9 9 9 9 10 10 9 8 7 7 7 7 7 7 7 7 7 7 7 8 8 8 8 8 8 8 8 8 8 7 6 6 6 5 5 5 5 5 5 5 6 6 7 7 9 9
6 6 7 6 4 2 5 10 13 14 17 19 20 21 21 22 25 25 25 24 23 23 23 22 19 17 16 15 15 15 14 14 13 13 13 13 13 13 11 10 10 10 10 11 11 10 9 9 9 8 8 7 7 7 7 6 6 7 7 7 7 6 6 6 6 6 6 7 7 6 5 5 5 5 5 5 5 6 6 6 6 6 6 6 6
7 7 7 6 4 1 3 8 11 12 15 16 16 17 18 20 23 24 23 23 23 22 23 22 20 18 17 16 15 15 14 14 14 12 13 13 13 13 13 11 10 11 11 12 12 11 10 10 9 9 9 8 8 7 6 6 6 6 6 6 6 5 5 5 5 5 5 5 6 5 4 4 5 5 5 5 6 6 6 6 6 6 6 5 5
7 7 7 7 6 3 3 6 7 9 11 13 13 14 14 15 19 21 21 20 21 21 21 21 20 18 17 17 16 15 14 14 14 13 13 13 13 13 13 13 12 12 13 14 13 12 11 11 10 10 10 9 9 8 7 7 6 6 6 5 5 5 5 5 4 4 4 3 3 4 3 3 4 5 5 5 6 6 7 7 7 7 6 5 5
8 8 7 7 8 6 3 5 5 7 8 9 9 9 10 12 15 18 18 17 18 18 18 19 20 18 18 18 17 16 15 14 14 13 13 13 13 13 13 13 13 13 14 15 14 14 13 12 11 11 10 10 9 9 8 8 7 6 6 5 5 5 5 5 4 4 3 3 2 2 1 1 2 3 4 4 5 5 6 7 7 7 7 7 6
8 8 8 7 8 8 6 5 6 7 7 8 8 6 6 9 11 12 13 13 13 14 14 15 17 17 16 17 17 16 16 15 14 13 13 13 14 13 13 13 14 14 14 15 15 15 15 14 13 12 11 11 10 10 9 9 8 7 7 6 6 5 5 5 5 4 4 3 3 2 1 0 1 2 2 2 3 4 5 6 7 8 8 8 8
8 8 8 8 8 9 8 7 7 8 9 9 9 7 5 7 8 9 9 9 9 10 10 11 13 15 15 15 15 15 15 15 13 12 12 13 14 13 13 13 14 14 15 16 17 16 17 16 15 14 13 12 12 11 10 9 9 8 8 7 6 6 6 6 5 4 4 4 3 3 2 2 1 2 3 3 3 4 4 5 6 6 7 7 8
8 9 9 9 10 10 9 8 8 10 11 12 12 9 6 5 7 8 8 8 8 8 9 9 10 12 12 12 11 12 12 11 12 12 12 12 11 11 12 13 13 14 15 17 17 17 18 17 16 16 15 14 14 13 12 11 10 9 8 8 7 7 7 7 6 5 5 4 3 3 3 3 3 3 3 4 4 4 5 6 6 6 6 6 7
8 9 9 9 10 11 12 11 11 12 13 13 12 11 9 6 5 5 4 5 6 7 7 8 9 9 9 9 8 9 9 8 12 15 13 10 9 9 11 13 14 15 16 17 18 18 19 19 18 17 17 16 15 15 14 13 11 11 10 9 9 9 8 7 7 6 6 5 4 4 3 3 3 4 4 5 5 5 5 6 6 6 7 7 7
9 9 8 8 10 12 13 14 14 15 15 14 13 12 11 10 10 9 7 4 2 4 6 6 6 8 8 8 7 9 9 9 13 15 12 11 14 14 13 13 14 15 16 18 19 19 19 20 19 19 18 17 17 16 16 15 14 14 13 11 11 10 9 9 8 8 7 6 5 5 4 4 4 4 5 6 6 6 6 6 6 7 8 9 9
9 8 7 8 9 10 11 12 13 14 14 14 13 13 13 12 12 12 11 9 7 3 1 2 3 4 6 7 6 7 9 11 13 13 11 12 16 19 19 17 16 17 17 18 19 20 20 20 20 20 19 19 19 18 18 17 16 16 14 13 12 12 11 10 9 8 8 7 6 5 5 4 4 4 5 6 6 6 6 7 8 8 9 9 9
8 8 8 8 8 8 9 10 11 11 12 12 12 13 13 13 13 12 11 11 11 9 7 5 3 2 2 3 4 6 7 9 10 10 11 11 13 16 18 18 18 20 20 19 19 20 21 21 21 21 22 22 22 21 20 18 17 16 15 14 13 12 12 11 10 9 8 7 6 6 5 5 4 5 5 5 6 6 7 8 9 9 10 10 10
7 8 7 7 7 8 9 10 10 10 11 11 11 12 12 13 12 12 12 12 11 11 10 9 7 6 5 4 1 2 6 8 10 10 10 11 12 13 14 15 15 17 19 20 21 21 21 21 23 23 23 23 22 21 20 19 18 17 16 15 14 13 12 11 10 9 8 7 7 6 5 5 5 5 5 6 6 7 8 9 10 10 11 11 11
6 6 6 7 7 8 9 10 9 9 10 10 11 12 12 12 12 11 12 12 11 10 11 10 8 7 8 9 7 4 4 5 5 5 6 8 11 13 13 14 14 15 17 19 21 21 22 23 24 23 23 23 22 21 20 19 18 18 17 16 15 13 12 11 10 9 8 8 7 6 6 5 5 5 5 5 6 6 7 8 10 10 11 12 12
5 5 6 7 7 7 8 8 8 9 9 9 10 11 11 11 11 11 12 11 11 11 10 9 7 7 8 8 6 6 5 5 4 3 3 4 7 11 12 14 15 15 17 19 19 20 23 25 25 24 23 22 21 21 20 19 18 17 17 16 15 14 12 11 10 9 9 8 8 7 7 6 6 6 6 6 6 7 8 9 9 10 11 12 13
6 5 5 6 7 7 7 7 7 8 8 8 9 10 10 10 10 10 10 10 10 10 9 8 7 7 7 5 4 4 4 5 5 4 4 4 6 8 11 14 15 16 18 19 19 18 20 23 24 24 23 22 22 22 22 21 20 18 16 15 13 13 12 11 10 9 9 8 8 8 8 8 9 10 9 10 11 10 9 10 10 10 11 12 13
6 6 6 6 6 7 7 7 6 6 7 7 6 7 7 8 8 9 9 8 8 8 7 6 6 5 5 5 4 3 3 4 5 5 5 5 6 7 9 11 13 15 17 19 19 18 19 21 22 24 24 23 22 22 22 24 22 19 16 14 13 11 11 10 9 9 9 9 8 8 9 11 13 12 11 11 11 10 10 10 11 11 11 13 14
7 6 6 6 6 6 6 7 6 5 5 5 4 5 5 5 5 6 6 6 5 5 3 3 4 5 5 5 5 5 5 5 6 6 6 7 7 9 9 10 11 12 14 16 17 17 20 23 23 25 25 23 20 20 22 25 24 20 16 14 12 11 10 10 9 9 9 9 9 8 8 10 12 11 10 9 9 9 11 11 11 11 12 14 15
8 7 6 6 6 6 5 5 5 4 4 4 3 3 5 5 4 4 5 4 3 2 1 0 1 3 4 3 4 5 5 6 6 7 7 8 9 10 10 11 11 9 10 12 13 14 17 19 20 21 20 18 17 19 23 25 25 22 18 14 11 11 10 10 10 10 9 8 9 8 8 8 9 9 9 9 10 12 13 12 11 12 14 16 17
7 8 7 6 5 6 5 4 3 2 3 3 2 2 3 3 3 3 4 3 2 2 1 1 1 2 3 3 3 4 5 6 6 7 8 9 10 10 11 10 10 9 9 9 10 12 11 13 15 15 15 14 14 19 24 25 25 23 19 13 10 10 10 10 10 10 9 8 8 8 8 8 8 9 10 10 11 12 11 10 11 13 16 18 19
6 7 6 5 4 4 4 3 2 2 2 2 1 2 2 2 2 2 2 1 1 1 2 2 2 3 3 3 3 4 5 6 7 8 9 10 10 10 10 10 10 9 9 9 11 13 13 15 17 15 14 14 17 21 25 26 24 19 14 10 8 9 10 9 10 10 9 9 8 8 9 8 8 8 9 9 9 9 10 10 11 14 16 18 20
7 6 4 4 3 2 2 1 1 1 1 2 1 1 0 1 1 1 1 1 2 2 2 2 3 4 3 3 3 5 6 7 8 9 10 10 11 11 11 11 10 10 10 11 11 13 16 19 17 15 16 17 20 23 25 24 20 15 13 12 9 9 9 9 9 10 10 10 9 9 10 9 9 9 10 10 10 10 11 13 14 16 17 19 19
7 5 3 1 0 1 1 1 1 1 2 2 2 1 2 2 2 3 3 3 3 3 3 3 4 5 4 4 4 6 7 8 9 9 10 11 11 11 11 11 11 11 11 11 12 13 16 16 13 15 17 19 22 24 23 20 16 14 15 13 9 9 9 9 9 10 10 10 10 10 10 10 9 10 10 11 11 12 13 15 16 17 18 19 19
6 5 4 4 4 4 3 1 2 3 3 4 4 4 4 5 5 5 4 4 4 4 4 5 5 6 5 5 6 7 8 8 9 10 11 11 11 10 11 11 11 11 11 11 12 12 12 12 14 15 16 22 25 23 20 18 16 16 16 11 8 8 9 9 9 10 11 11 11 11 10 10 10 10 12 14 15 16 15 15 17 18 18 19 19
3 5 6 7 7 6 4 3 4 5 5 5 5 5 6 7 7 7 6 6 6 6 6 6 7 6 6 7 7 8 9 9 10 10 10 11 11 10 11 11 11 11 11 11 11 10 8 11 14 14 17 24 26 21 18 18 17 17 15 11 8 7 8 9 9 10 11 10 11 12 12 12 12 13 14 16 17 17 15 15 17 18 18 20 20
5 7 8 8 7 8 8 7 7 7 6 6 7 8 9 9 9 9 9 8 8 7 7 8 8 8 8 8 8 9 9 9 9 9 10 10 11 11 11 11 11 11 11 10 11 10 10 12 15 14 17 23 23 20 18 18 17 16 14 12 8 6 8 9 9 10 10 9 10 11 12 12 13 14 15 15 15 16 15 15 17 18 20 23 23
9 10 10 10 10 11 11 10 8 8 8 8 9 10 10 11 11 11 11 10 9 9 10 10 11 11 10 10 10 10 10 9 9 9 9 10 11 11 11 11 12 12 11 9 8 10 13 14 14 13 14 18 20 19 17 16 16 14 12 12 9 7 8 9 8 8 8 9 9 9 8 7 7 10 12 14 15 16 15 15 16 18 20 23 25
13 12 12 12 13 14 13 11 10 10 10 10 10 11 12 12 12 12 12 11 11 11 12 12 13 13 13 13 12 11 11 11 11 10 10 11 12 12 12 12 12 11 10 7 8 14 15 15 14 12 12 14 17 18 17 15 14 13 12 12 9 7 7 6 6 7 8 9 9 8 7 6 6 8 10 13 15 17 19 19 19 19 22 25 27
15 15 15 15 15 15 14 13 13 12 12 12 12 13 13 13 13 13 13 12 12 13 14 14 15 15 14 14 13 13 13 13 12 11 12 12 12 13 12 11 10 6 4 9 14 17 17 16 14 12 12 14 15 16 15 14 12 10 10 10 8 7 7 6 6 7 7 9 10 9 8 8 9 12 16 19 21 22 23 21 20 21 22 24 25
18 18 18 18 17 17 16 16 16 15 15 14 14 15 14 14 15 15 14 14 15 15 15 16 16 16 16 15 15 14 15 14 13 12 12 12 12 13 12 10 6 6 12 15 16 17 17 16 14 13 13 14 14 13 12 11 10 8 8 8 7 8 8 6 5 7 8 9 10 10 11 13 15 19 23 25 25 24 21 19 18 19 20 21 22
20 21 21 20 20 19 19 18 18 17 17 16 15 16 16 16 16 15 15 15 16 16 17 18 18 17 17 16 16 16 16 15 14 12 12 12 12 10 7 6 8 11 14 15 16 16 16 15 14 13 13 13 12 10 9 7 6 5 5 5 5 6 6 5 5 7 8 9 10 12 14 18 20 23 23 23 23 22 20 19 19 20 21 21 22
23 24 24 23 23 22 21 20 20 19 18 17 17 17 18 18 17 16 16 16 17 17 17 18 18 18 18 17 17 17 16 15 14 12 12 12 10 5 6 8 10 12 15 17 16 16 16 15 14 13 13 13 11 9 7 5 4 2 2 1 3 4 4 5 6 6 7 9 11 13 15 17 19 20 19 20 20 19 19 20 20 21 22 22 21
25 25 25 25 25 25 24 23 22 21 20 20 19 19 19 19 18 18 18 19 19 19 19 19 19 19 18 18 18 17 16 16 14 13 12 11 8 8 9 9 11 13 16 18 17 15 15 15 14 13 13 12 11 10 8 6 4 2 1 3 5 4 5 9 9 7 7 8 10 12 14 16 17 16 16 17 18 19 20 20 20 20 20 20 19
26 26 26 26 25 25 25 24 23 23 23 23 24 24 24 23 23 23 23 23 24 24 23 22 21 20 19 19 19 17 16 16 13 9 8 9 10 11 10 12 15 16 17 18 17 16 16 16 15 15 14 12 11 10 8 5 3 2 1 4 5 4 6 8 9 8 9 11 12 14 15 15 15 14 15 17 18 18 19 19 18 18 18 18 19
27 27 27 27 26 25 25 25 24 24 24 24 25 26 26 25 25 25 24 24 25 24 24 23 23 23 21 20 19 17 16 15 12 7 7 10 11 11 12 15 18 19 20 20 18 18 18 17 15 14 13 12 12 11 9 6 4 2 1 3 4 4 6 6 7 10 13 14 13 13 13 13 14 14 15 16 17 17 17 18 18 18 18 19 20
27 27 27 26 26 26 26 26 25 24 23 23 23 25 25 25 25 24 24 24 24 24 24 24 24 24 23 21 19 17 16 14 10 8 8 9 10 12 15 16 18 21 22 19 17 19 17 15 14 13 10 10 12 11 7 4 3 2 0 2 4 5 6 6 8 11 12 11 10 10 11 13 14 14 16 16 16 17 18 18 19 19 20 20 21
27 27 26 26 27 26 26 26 25 24 24 24 25 25 25 25 25 24 24 24 24 23 24 24 24 24 23 21 19 17 13 10 9 11 12 11 11 14 16 19 22 23 21 18 20 20 15 13 14 13 10 10 11 9 6 4 3 2 1 3 4 5 6 8 10 10 9 8 9 11 12 13 14 15 15 16 17 18 19 19 20 20 20 21 21
25 25 25 25 25 25 25 26 25 24 25 25 25 25 25 24 24 24 24 24 24 23 23 23 23 23 22 21 19 14 11 12 14 15 17 19 20 19 19 21 24 23 20 19 20 19 14 13 14 14 12 11 10 8 7 6 3 2 3 3 3 5 8 11 13 11 8 9 11 12 13 14 14 15 15 16 18 19 19 20 21 21 21 21 21
Wind_Direction
179 188 182 188 188 187 183 169 171 169 165 167 162 164 160 156 162 159 161 159 160 171 166 173 163 144 145 140 134 127 117 118 98 73 86 89 72 68 59 58 56 47 37 30 23 316 334 83 135 189 183 136 171 189 202 211 212 204 204 214 219 222 230 227 204 192 181 175 163 197 300 309 292 278 274 284 291 281 279 275 259 254 259 255 252
180 190 186 188 187 188 183 171 174 173 172 171 169 172 166 163 165 159 163 161 164 173 159 160 148 134 143 137 134 129 115 112 111 93 92 95 80 70 60 58 58 52 50 48 43 18 39 75 127 165 173 159 153 151 184 206 209 208 212 225 232 227 221 215 196 187 175 164 147 108 297 293 291 282 270 271 283 282 289 294 276 264 264 257 251
176 176 178 190 193 189 180 172 176 175 175 174 173 175 172 172 169 164 166 161 162 164 158 156 136 113 114 116 117 113 85 73 92 101 98 94 81 73 67 62 58 55 61 68 72 62 64 79 89 125 163 160 159 160 175 188 192 198 205 222 234 224 211 204 193 192 181 157 151 156 237 252 266 276 264 256 271 281 291 295 286 286 289 279 266
166 156 176 197 195 188 180 174 175 176 179 178 174 174 177 177 172 170 168 160 160 162 159 149 133 120 112 108 100 104 104 97 104 108 100 93 84 77 71 68 65 61 60 68 79 73 71 83 79 87 109 130 147 154 165 176 180 185 195 218 231 222 205 198 195 196 191 177 163 148 135 142 230 217 216 226 251 270 279 285 291 309 320 307 289
182 166 185 200 195 189 184 180 178 179 182 181 177 175 177 177 172 171 168 159 158 161 158 148 142 135 127 125 116 114 125 131 127 118 111 104 92 86 80 76 75 70 66 68 77 80 81 80 72 79 86 95 127 136 125 139 165 168 172 194 211 222 212 191 185 187 199 213 211 168 124 160 217 109 184 215 226 241 264 295 315 327 328 317 304
215 193 189 198 205 199 191 186 183 183 184 182 179 176 176 175 172 171 167 159 158 161 160 157 156 151 146 146 141 139 144 141 131 122 117 108 99 95 89 85 83 79 77 75 78 81 82 80 71 72 74 69 72 78 83 79 85 132 132 130 155 202 222 200 184 179 202 220 218 222 246 163 167 25 326 238 238 242 253 283 314 328 327 327 319
231 223 196 191 210 210 199 192 190 186 182 180 178 177 175 172 172 172 166 159 160 163 165 166 165 161 161 159 153 151 144 129 123 120 114 109 109 106 99 96 92 87 85 81 81 80 79 78 70 69 74 73 71 71 71 62 52 62 74 83 108 98 129 191 182 178 203 205 206 227 241 225 211 243 273 268 278 268 265 275 294 319 323 324 320
207 222 210 199 208 215 207 198 195 188 181 178 177 178 177 173 172 171 165 160 161 164 168 173 171 167 171 169 162 155 140 131 130 126 120 117 118 116 111 107 100 96 94 89 87 85 81 78 72 70 73 76 78 76 67 61 59 57 55 53 58 58 58 89 112 100 150 145 153 203 226 236 223 230 253 256 249 271 294 290 294 308 306 304 310
221 223 222 212 210 216 214 203 197 190 182 179 177 177 177 174 170 167 164 161 163 166 171 178 175 172 176 174 168 156 142 143 143 134 130 127 125 122 116 111 106 104 103 98 96 92 87 83 79 73 70 72 75 77 73 69 66 62 60 58 58 56 48 49 56 52 52 65 79 127 166 214 199 206 237 246 245 260 273 281 297 313 308 305 310
256 254 249 233 219 218 214 206 197 190 185 182 179 175 174 173 169 167 167 165 166 169 172 179 178 176 179 178 173 161 151 154 149 141 140 137 133 131 126 121 117 114 111 108 103 98 94 89 85 81 74 73 75 78 79 77 74 70 68 64 60 61 56 48 45 40 34 30 25 29 43 190 177 190 232 253 270 269 274 278 289 308 308 306 308
297 287 287 278 253 235 221 206 195 190 187 182 179 175 172 172 170 169 169 168 169 171 173 179 180 180 182 179 176 167 159 158 152 150 153 148 144 143 139 132 127 125 123 118 112 106 101 95 91 88 83 81 80 80 79 78 78 75 72 68 61 58 55 51 46 38 33 29 23 17 16 19 13 354 346 333 317 304 300 297 295 291 286 291 297
340 328 320 307 281 254 232 211 196 188 184 181 180 177 173 172 171 170 171 170 170 172 176 179 181 183 183 179 179 173 166 164 159 159 161 157 155 153 148 143 138 138 136 132 127 120 112 105 99 93 88 86 84 82 80 79 79 76 73 70 65 59 53 50 46 37 31 29 24 19 17 19 15 8 3 348 329 325 316 300 296 295 289 288 292
357 355 342 323 298 256 233 215 199 189 183 181 180 177 175 175 172 171 172 172 171 174 177 180 183 185 184 180 180 177 174 174 169 166 167 166 164 162 159 157 153 152 150 146 143 138 130 122 112 102 95 92 90 88 86 85 85 82 79 74 69 64 58 55 52 44 38 34 25 19 17 20 20 9 354 341 332 327 315 303 303 307 302 296 295
14 9 4 347 316 255 225 213 199 190 186 182 179 178 178 177 176 174 174 172 172 175 178 181 184 185 185 184 183 182 181 183 180 175 175 175 171 168 170 168 164 165 164 160 157 153 145 137 129 120 113 107 102 98 94 91 91 90 85 80 75 70 66 61 57 51 45 39 31 24 19 18 17 6 350 335 325 318 313 311 312 309 296 289 289
30 25 19 9 346 281 217 204 192 188 190 184 179 182 181 180 180 178 175 173 173 175 178 182 184 185 187 186 187 188 187 189 191 185 182 183 177 172 176 177 172 172 171 166 164 163 156 149 144 137 132 127 120 115 109 104 100 99 95 92 87 81 79 74 64 57 51 42 34 28 20 18 13 1 348 336 329 326 320 313 310 307 300 293 291
42 37 29 25 26 21 206 198 188 187 194 189 182 185 184 183 184 182 179 177 176 175 178 182 184 185 187 189 191 194 192 193 196 193 188 188 183 176 178 181 177 175 172 168 168 168 164 159 156 152 148 142 136 131 126 121 119 115 112 111 108 104 100 95 85 71 60 49 40 28 18 20 13 356 347 341 335 327 319 311 303 302 306 310 309
54 51 41 34 35 53 162 183 181 183 189 187 182 183 183 185 187 186 183 180 180 179 179 181 183 185 188 191 194 197 198 199 200 197 192 190 189 184 183 182 180 176 171 169 171 173 171 169 166 163 159 154 149 146 142 138 136 131 130 131 129 129 125 117 114 104 90 77 58 40 26 21 9 356 346 341 336 325 319 313 305 304 304 305 309
67 64 59 49 39 42 96 145 156 163 170 170 167 168 178 189 191 189 188 185 185 185 182 181 184 186 189 192 196 200 203 205 205 202 195 193 194 192 190 186 183 181 175 171 174 176 176 176 175 171 169 165 160 157 154 152 152 148 147 146 145 148 148 140 138 134 128 122 108 86 59 36 0 349 335 330 330 324 320 314 307 304 300 298 300
78 72 68 68 59 52 64 96 123 132 136 140 141 143 166 183 183 184 187 186 184 186 186 184 186 187 188 193 198 201 203 207 211 210 201 199 203 201 198 194 188 185 180 177 178 179 179 180 180 179 176 173 170 166 165 165 165 163 163 162 162 165 166 160 159 158 159 161 159 161 158 146 301 300 285 289 305 307 311 313 309 306 299 295 294
86 84 79 80 80 73 64 64 84 95 94 98 102 108 143 168 169 166 171 172 164 165 173 178 185 190 192 197 201 203 207 210 215 222 219 212 209 207 206 201 197 195 189 184 184 183 183 184 185 184 182 180 178 175 174 175 175 175 176 174 173 179 183 178 176 177 178 187 193 197 202 209 259 281 266 256 266 270 279 290 295 297 294 290 287
95 94 91 90 93 93 87 79 77 78 76 76 77 80 99 147 169 164 164 168 162 158 167 174 182 192 200 205 206 209 216 215 210 219 232 232 225 223 224 217 208 205 198 192 191 189 187 187 189 189 188 186 184 181 181 182 182 184 184 182 181 188 192 186 187 193 191 196 213 221 220 220 241 271 276 267 261 254 258 266 266 267 277 283 284
104 100 98 96 96 96 96 92 85 79 77 76 76 75 74 86 114 126 144 176 182 183 188 186 183 192 203 210 216 220 228 232 218 215 223 237 245 249 250 244 231 220 213 204 199 195 192 191 192 193 193 192 190 188 185 186 189 188 186 187 189 194 197 193 194 202 200 197 212 233 231 225 243 264 270 275 278 274 273 276 274 272 278 284 284
110 105 102 101 98 95 93 92 88 83 82 83 85 84 78 78 84 84 79 82 142 199 206 198 192 196 200 205 220 228 231 239 236 229 226 231 237 239 246 253 249 239 227 219 213 205 198 196 195 195 196 196 195 193 190 190 193 191 190 192 193 197 199 196 200 206 205 201 205 221 227 223 239 257 263 275 283 280 279 285 286 282 280 280 278
118 113 107 106 103 97 92 89 88 86 83 83 84 84 82 78 80 80 75 69 64 61 150 180 189 203 205 206 215 229 232 231 235 240 240 237 239 241 240 240 241 240 238 237 232 218 206 202 199 196 197 198 198 197 195 195 195 194 195 195 195 198 199 200 205 206 205 206 209 221 225 220 234 254 264 274 279 279 283 290 292 287 282 281 278
123 118 112 107 101 96 92 89 88 87 85 83 81 80 77 71 69 69 69 67 60 51 55 77 93 114 175 222 226 229 234 228 226 235 241 240 244 246 241 235 231 232 233 237 238 228 218 212 206 201 200 200 199 198 196 197 197 196 198 198 197 199 199 200 205 205 207 212 216 221 224 224 236 254 266 276 284 289 292 294 293 292 292 292 291
127 118 112 107 100 97 95 92 91 92 92 91 88 84 79 75 70 65 62 62 61 57 57 60 66 86 93 77 43 257 253 239 227 228 234 237 240 242 242 239 237 237 232 229 233 236 231 223 215 209 205 201 199 199 197 197 198 197 197 199 199 199 200 200 202 205 210 213 215 221 223 226 239 253 265 275 284 289 290 291 293 293 293 295 294
130 124 119 111 103 99 96 95 93 95 97 97 95 91 88 85 80 72 66 61 61 63 64 62 58 64 76 73 60 31 310 274 246 237 242 244 247 250 249 245 245 249 247 243 241 238 235 233 228 218 212 206 200 197 197 198 199 197 196 197 198 197 198 198 199 204 208 207 210 217 217 220 235 249 260 271 282 287 287 288 290 291 292 293 292
150 135 126 118 110 104 100 99 97 97 96 94 94 94 92 90 84 77 71 63 57 57 60 64 57 46 53 58 53 37 355 329 335 324 294 275 266 265 262 255 248 247 250 254 252 241 234 237 237 226 217 210 201 196 196 199 199 197 196 196 195 195 196 195 197 201 203 203 208 212 215 221 225 226 234 253 269 278 284 289 292 294 295 294 292
182 153 132 125 120 113 107 103 100 99 99 97 96 96 96 96 92 86 77 68 60 54 51 54 50 40 40 42 39 32 357 321 315 317 308 299 291 284 282 277 268 259 253 253 253 247 236 234 235 228 220 213 206 199 195 195 196 194 194 193 192 194 194 192 195 198 197 201 208 211 214 216 215 222 241 259 263 263 268 277 286 292 296 296 294
200 176 149 133 124 123 120 113 102 93 96 96 93 96 98 96 95 93 86 75 65 56 47 44 39 26 17 16 12 0 330 303 303 307 303 301 295 282 277 277 270 261 256 252 250 246 239 235 233 231 229 221 210 203 197 193 190 189 189 187 186 191 195 193 195 197 196 202 210 215 221 224 228 243 265 270 260 259 268 272 275 283 291 295 296
207 185 162 147 138 131 121 113 106 98 99 100 102 111 112 108 102 98 92 82 70 65 55 33 23 7 354 351 342 329 320 313 311 305 294 288 279 267 260 259 257 254 255 254 250 246 242 237 235 236 232 219 204 202 200 192 186 183 180 178 179 187 195 197 198 198 201 207 215 222 231 235 238 250 266 267 259 270 284 280 272 277 286 290 291
202 198 187 164 145 129 115 107 109 113 110 105 108 117 114 110 106 105 106 105 100 108 124 11 358 337 327 327 318 308 304 302 295 288 281 272 266 262 255 251 251 251 256 259 258 255 245 232 227 226 215 201 200 205 199 189 182 176 168 165 175 187 192 198 204 206 209 213 217 225 230 235 240 244 254 262 266 276 283 277 269 277 283 284 284
202 202 195 167 139 123 115 108 106 112 94 78 73 78 87 91 93 103 113 114 119 141 190 241 257 277 286 295 300 296 291 288 284 283 280 269 261 259 255 254 251 247 251 254 256 260 246 217 212 209 195 194 205 200 191 185 179 173 167 164 179 190 192 200 207 209 214 219 225 233 235 239 245 250 255 260 263 273 281 276 275 281 283 281 280
187 185 177 154 132 115 111 114 120 98 53 15 23 81 98 124 134 120 111 104 161 192 217 241 258 273 278 284 294 296 295 293 290 288 284 275 267 261 257 258 255 247 242 240 245 249 240 228 225 214 198 199 197 188 186 184 180 181 186 189 192 193 195 204 210 211 219 227 231 238 243 247 250 253 259 262 264 275 283 281 281 282 282 284 282
173 171 150 126 125 122 118 129 123 87 331 278 237 127 170 200 172 162 193 228 247 254 255 261 276 286 288 291 297 301 301 298 295 291 285 278 269 260 257 256 254 250 242 237 239 236 234 238 231 204 190 191 187 184 187 186 184 188 190 183 183 192 200 212 218 218 225 231 234 238 243 248 253 257 262 262 263 272 280 283 286 285 286 287 283
165 156 138 114 246 250 215 185 290 293 277 273 281 296 277 260 244 235 235 241 260 273 276 288 299 298 295 297 300 304 304 301 298 292 284 279 270 258 253 251 251 253 247 241 240 233 229 227 205 183 188 189 183 184 187 185 182 177 171 172 184 197 207 219 224 227 234 236 237 240 244 248 253 257 263 267 271 275 278 283 286 288 288 286 281
168 168 201 244 262 264 252 226 255 271 280 287 289 285 281 275 268 257 254 260 267 274 283 293 297 295 296 297 297 297 298 298 298 293 286 282 274 260 253 248 246 247 244 243 242 236 226 207 180 173 188 189 181 181 184 180 174 167 164 172 194 203 214 226 229 232 239 241 242 242 245 253 258 260 268 276 280 279 278 281 285 287 288 286 285
204 223 251 258 256 262 268 271 272 273 275 276 275 277 277 275 272 266 266 269 271 275 281 288 291 289 286 284 284 286 289 290 291 292 291 286 277 265 256 249 245 244 241 242 240 226 205 192 184 179 186 187 180 174 173 171 167 164 164 171 190 217 232 233 235 239 241 247 252 249 250 256 262 266 271 275 276 276 276 280 285 287 286 286 289
267 261 266 267 269 279 282 279 273 269 272 273 272 272 272 271 272 270 269 272 274 276 279 283 288 287 282 280 280 279 280 282 285 288 289 286 279 269 258 252 252 250 246 247 238 211 179 176 186 183 179 180 174 165 165 166 162 164 167 166 177 226 242 236 242 249 249 256 264 268 271 268 264 265 267 268 270 274 277 281 285 285 285 287 291
273 269 270 270 273 276 275 275 273 271 273 272 270 268 267 267 268 267 265 267 270 273 277 282 284 282 279 278 278 277 277 278 282 285 285 282 277 269 261 256 255 253 252 252 226 184 163 165 173 168 160 164 164 160 162 165 164 164 167 170 186 237 254 245 250 261 266 272 278 286 290 278 262 258 258 260 266 271 276 283 284 281 281 285 289
280 284 287 284 280 276 275 275 275 274 273 271 269 267 265 264 263 262 262 265 268 271 273 277 279 279 277 276 275 278 280 279 281 282 280 278 274 268 262 257 256 259 259 237 168 147 151 161 161 149 139 148 157 158 157 161 164 165 170 181 200 246 259 255 269 277 280 287 289 293 297 289 285 286 283 285 289 290 293 293 285 279 279 282 285
281 281 280 279 277 278 279 278 276 274 272 270 268 266 265 266 264 263 265 267 268 269 270 271 273 272 272 271 271 273 275 276 277 277 276 275 271 264 259 257 258 255 201 166 150 145 152 156 149 138 129 136 149 154 153 158 166 171 181 191 208 244 254 263 285 288 286 291 292 292 292 289 293 302 304 306 306 305 304 298 288 283 284 287 288
281 280 279 281 282 283 282 281 280 276 273 271 269 268 268 267 266 267 270 270 269 269 269 269 270 271 269 268 265 265 266 266 266 269 272 272 269 266 261 250 224 150 134 139 143 148 151 146 138 135 131 135 145 147 146 156 167 175 192 201 213 240 252 261 281 288 290 293 293 292 288 284 288 294 299 303 306 307 306 300 295 293 294 294 293
278 278 279 282 285 284 281 280 277 274 272 270 269 270 269 269 269 270 271 272 272 271 270 269 268 267 265 262 259 259 259 258 258 260 264 268 270 269 249 205 168 146 142 143 141 142 141 136 133 133 132 136 143 142 142 157 169 179 200 212 228 249 261 276 289 292 294 293 292 291 288 287 291 296 300 306 309 309 307 304 301 301 300 296 291
282 281 280 280 282 282 282 281 278 276 274 272 272 272 272 272 274 274 272 272 271 269 269 271 270 267 263 259 257 256 255 254 253 254 262 269 264 223 168 159 157 156 157 154 148 144 142 139 140 142 142 144 147 144 138 133 129 152 191 260 300 295 311 335 327 303 289 286 285 288 293 298 301 304 309 312 310 308 307 305 304 302 298 291 286
280 281 281 280 280 280 280 279 277 275 274 273 271 271 270 271 272 269 266 266 266 265 263 264 266 267 265 261 258 257 255 253 251 254 264 265 232 186 167 160 165 168 161 152 147 147 147 144 141 140 139 142 151 159 156 142 128 133 185 312 314 317 339 344 337 320 307 305 302 302 306 308 306 306 310 309 305 304 305 304 303 300 293 284 281
278 279 279 279 278 278 277 276 275 274 272 272 271 269 268 270 270 268 267 266 266 265 264 262 263 264 263 261 259 258 258 258 255 252 251 238 214 199 183 169 171 170 157 147 144 142 141 138 132 127 130 138 151 155 146 135 134 132 299 298 299 311 331 335 332 323 320 319 313 310 311 310 307 308 312 310 307 305 305 304 303 299 292 287 285
279 280 281 279 278 278 278 278 278 277 275 274 274 272 271 271 271 271 272 270 267 265 264 262 261 259 258 259 260 258 258 259 252 234 221 221 214 201 183 176 176 167 151 146 146 142 140 143 141 141 147 150 144 133 120 113 121 117 339 316 321 332 338 339 323 310 312 315 310 307 311 316 316 314 312 311 309 306 306 306 304 301 298 294 292
280 281 282 281 280 280 280 279 279 278 276 274 273 273 271 269 268 267 267 267 266 265 263 260 257 256 257 257 256 256 258 254 234 199 189 199 200 188 172 163 163 156 146 143 147 144 143 146 144 143 147 135 120 118 124 135 144 150 315 333 334 332 336 335 321 319 326 325 313 312 320 323 322 317 313 311 311 309 308 307 304 302 300 297 294
281 281 279 278 278 277 278 278 277 276 275 273 272 272 270 268 267 265 263 262 261 261 260 257 253 252 252 249 247 247 245 229 193 162 148 149 161 169 158 144 144 146 140 138 145 145 143 139 132 127 127 127 123 128 143 150 139 114 16 347 338 342 353 354 349 354 358 338 319 324 330 327 322 319 315 312 312 311 309 307 305 304 301 297 294
284 282 281 280 280 280 280 279 278 278 278 276 275 273 269 267 266 263 259 257 255 254 254 252 249 247 245 242 241 235 208 179 162 148 137 129 127 130 133 134 139 140 133 132 140 142 140 142 139 129 124 129 133 137 143 140 120 65 19 14 29 33 29 22 14 8 355 337 334 335 331 324 320 316 313 311 312 311 310 308 306 304 301 297 294